Weather History for Bullhead City, AZ

Change the Weather History Date:

Monday, October 14, 2013

  Actual Average Record
Temperature  
Mean Temperature 70 °F -  
Max Temperature 77 °F 87 °F 99 °F (1991)
Min Temperature 62 °F 65 °F 54 °F (1990)
Cooling Degree Days 4    
Growing Degree Days 20 (Base 50)    
Moisture  
Dew Point 35 °F    
Average Humidity 28    
Maximum Humidity 39    
Minimum Humidity 18    
Precipitation  
Precipitation 0.00 in - - ()
Sea Level Pressure  
Sea Level Pressure 30.02 in    
Wind  
Wind Speed 15 mph (North)    
Max Wind Speed 26 mph    
Max Gust Speed 32 mph    
Visibility 10 miles    
Events      
Averages and records for this station are not official NWS values.
T = Trace of Precipitation, MM = Missing Value Source: NWS Daily Summary

Daily Weather History Graph

Daily Weather History Graph

Search for Another Location

Airport:

Trip Planner

Search our weather history database for the weather conditions in past years. The results will help you decide how hot, cold, wet, or windy it might be!

Date:

Astronomy

Oct. 14, 2013 Rise Set
Actual Time 6:43 AM MST 6:04 PM MST
Civil Twilight 6:18 AM MST 6:29 PM MST
Nautical Twilight 5:48 AM MST 6:58 PM MST
Astronomical Twilight 5:19 AM MST 7:28 PM MST
Moon 3:27 PM MST (10/14) 2:14 AM MST (10/14)
Length of Visible Light 12h 11m
Length of Day
11h 20m
Waxing Gibbous, 80% of the Moon is Illuminated
Oct 14
Waxing Gibbous
Oct 18
Full
Oct 26
Last Quarter
Nov 3
New
Nov 9
First Quarter

Hourly Weather History & Observations

Time (MST) Temp. Dew Point Humidity Pressure Visibility Wind Dir Wind Speed Gust Speed Precip Events Conditions
12:15 AM 68.0 °F 35.6 °F 30% 29.98 in 10.0 mi North 15.0 mph 20.7 mph N/A   Clear
12:35 AM 68.0 °F 35.6 °F 30% 29.99 in 10.0 mi North 12.7 mph - N/A   Clear
12:55 AM 68.0 °F 35.6 °F 30% 30.00 in 10.0 mi North 13.8 mph - N/A   Clear
1:15 AM 68.0 °F 37.4 °F 33% 30.01 in 10.0 mi North 11.5 mph - N/A   Clear
1:35 AM 66.2 °F 37.4 °F 35% 30.01 in 10.0 mi NNE 12.7 mph - N/A   Clear
1:55 AM 66.2 °F 37.4 °F 35% 30.02 in 10.0 mi NNE 12.7 mph - N/A   Clear
2:15 AM 66.2 °F 37.4 °F 35% 30.01 in 10.0 mi NNE 18.4 mph - N/A   Clear
2:35 AM 66.2 °F 37.4 °F 35% 30.01 in 10.0 mi North 17.3 mph - N/A   Clear
2:55 AM 66.2 °F 37.4 °F 35% 30.02 in 10.0 mi NNE 15.0 mph - N/A   Clear
3:15 AM 66.2 °F 37.4 °F 35% 30.02 in 10.0 mi NNE 15.0 mph - N/A   Clear
3:35 AM 66.2 °F 37.4 °F 35% 30.02 in 10.0 mi NNE 16.1 mph - N/A   Clear
3:55 AM 66.2 °F 35.6 °F 32% 30.03 in 10.0 mi North 15.0 mph - N/A   Clear
4:15 AM 66.2 °F 35.6 °F 32% 30.03 in 10.0 mi NNE 16.1 mph - N/A   Clear
4:35 AM 64.4 °F 35.6 °F 34% 30.03 in 10.0 mi NNE 16.1 mph - N/A   Clear
4:55 AM 64.4 °F 37.4 °F 37% 30.04 in 10.0 mi NE 11.5 mph - N/A   Clear
5:15 AM 64.4 °F 37.4 °F 37% 30.05 in 10.0 mi NE 13.8 mph - N/A   Clear
5:35 AM 64.4 °F 37.4 °F 37% 30.06 in 10.0 mi NNE 11.5 mph - N/A   Clear
5:55 AM 64.4 °F 37.4 °F 37% 30.07 in 10.0 mi NNE 11.5 mph - N/A   Clear
6:15 AM 62.6 °F 37.4 °F 39% 30.07 in 10.0 mi NNE 10.4 mph - N/A   Clear
6:35 AM 62.6 °F 35.6 °F 37% 30.07 in 10.0 mi NNE 10.4 mph - N/A   Clear
6:55 AM 64.4 °F 37.4 °F 37% 30.08 in 10.0 mi NNE 15.0 mph - N/A   Clear
7:15 AM 64.4 °F 37.4 °F 37% 30.08 in 10.0 mi NNE 17.3 mph - N/A   Clear
7:35 AM 64.4 °F 37.4 °F 37% 30.09 in 10.0 mi NNE 16.1 mph - N/A   Clear
7:55 AM 64.4 °F 37.4 °F 37% 30.09 in 10.0 mi NNE 16.1 mph - N/A   Clear
8:15 AM 66.2 °F 37.4 °F 35% 30.10 in 10.0 mi North 15.0 mph - N/A   Clear
8:35 AM 66.2 °F 39.2 °F 37% 30.10 in 10.0 mi North 17.3 mph - N/A   Clear
8:55 AM 66.2 °F 39.2 °F 37% 30.10 in 10.0 mi North 17.3 mph 20.7 mph N/A   Clear
9:15 AM 66.2 °F 39.2 °F 37% 30.11 in 10.0 mi North 17.3 mph 20.7 mph N/A   Clear
9:35 AM 68.0 °F 37.4 °F 33% 30.10 in 10.0 mi North 21.9 mph - N/A   Clear
9:55 AM 68.0 °F 37.4 °F 33% 30.09 in 10.0 mi North 24.2 mph - N/A   Clear
10:15 AM 69.8 °F 37.4 °F 31% 30.10 in 10.0 mi North 23.0 mph 26.5 mph N/A   Clear
10:35 AM 71.6 °F 37.4 °F 29% 30.09 in 10.0 mi North 20.7 mph 27.6 mph N/A   Clear
10:55 AM 71.6 °F 37.4 °F 29% 30.09 in 10.0 mi North 20.7 mph 26.5 mph N/A   Clear
11:15 AM 71.6 °F 37.4 °F 29% 30.08 in 10.0 mi North 23.0 mph 28.8 mph N/A   Clear
11:35 AM 73.4 °F 37.4 °F 27% 30.07 in 10.0 mi North 24.2 mph 29.9 mph N/A   Clear
11:55 AM 73.4 °F 37.4 °F 27% 30.06 in 10.0 mi North 19.6 mph 32.2 mph N/A   Clear
12:15 PM 73.4 °F 35.6 °F 25% 30.05 in 10.0 mi North 26.5 mph - N/A   Clear
12:35 PM 73.4 °F 35.6 °F 25% 30.05 in 10.0 mi NNW 21.9 mph 29.9 mph N/A   Clear
12:55 PM 75.2 °F 35.6 °F 24% 30.04 in 10.0 mi NNW 20.7 mph 27.6 mph N/A   Clear
1:15 PM 75.2 °F 35.6 °F 24% 30.03 in 10.0 mi North 21.9 mph 27.6 mph N/A   Clear
1:35 PM 77.0 °F 35.6 °F 22% 30.01 in 10.0 mi NNW 21.9 mph 29.9 mph N/A   Clear
1:55 PM 77.0 °F 35.6 °F 22% 30.00 in 10.0 mi NNW 18.4 mph 27.6 mph N/A   Clear
2:15 PM 77.0 °F 35.6 °F 22% 30.00 in 10.0 mi NNW 18.4 mph 28.8 mph N/A   Clear
2:35 PM 77.0 °F 35.6 °F 22% 29.99 in 10.0 mi North 20.7 mph 27.6 mph N/A   Clear
2:55 PM 77.0 °F 33.8 °F 21% 29.99 in 10.0 mi North 19.6 mph - N/A   Clear
3:15 PM 77.0 °F 33.8 °F 21% 29.98 in 10.0 mi North 17.3 mph 25.3 mph N/A   Clear
3:35 PM 77.0 °F 32.0 °F 19% 29.97 in 10.0 mi North 23.0 mph - N/A   Clear
3:55 PM 77.0 °F 32.0 °F 19% 29.97 in 10.0 mi NNW 19.6 mph 25.3 mph N/A   Clear
4:15 PM 77.0 °F 32.0 °F 19% 29.96 in 10.0 mi NNW 19.6 mph 24.2 mph N/A   Clear
4:35 PM 77.0 °F 32.0 °F 19% 29.96 in 10.0 mi NNW 16.1 mph - N/A   Clear
4:55 PM 77.0 °F 32.0 °F 19% 29.96 in 10.0 mi North 20.7 mph 24.2 mph N/A   Clear
5:15 PM 77.0 °F 32.0 °F 19% 29.96 in 10.0 mi NNW 18.4 mph 23.0 mph N/A   Clear
5:35 PM 77.0 °F 32.0 °F 19% 29.96 in 10.0 mi NNW 17.3 mph - N/A   Clear
5:55 PM 75.2 °F 32.0 °F 21% 29.96 in 10.0 mi North 18.4 mph 21.9 mph N/A   Clear
6:15 PM 75.2 °F 33.8 °F 22% 29.97 in 10.0 mi North 13.8 mph - N/A   Clear
6:35 PM 75.2 °F 32.0 °F 21% 29.97 in 10.0 mi North 15.0 mph - N/A   Clear
6:55 PM 73.4 °F 32.0 °F 22% 29.98 in 10.0 mi North 12.7 mph - N/A   Clear
7:15 PM 73.4 °F 26.6 °F 18% 29.98 in 10.0 mi North 12.7 mph - N/A   Clear
7:35 PM 71.6 °F 30.2 °F 22% 29.99 in 10.0 mi North 5.8 mph - N/A   Clear
7:55 PM 71.6 °F 32.0 °F 23% 29.99 in 10.0 mi North 10.4 mph - N/A   Clear
8:15 PM 71.6 °F 32.0 °F 23% 29.99 in 10.0 mi North 13.8 mph - N/A   Clear
8:35 PM 71.6 °F 33.8 °F 25% 29.99 in 10.0 mi North 10.4 mph - N/A   Clear
8:55 PM 68.0 °F 32.0 °F 26% 30.00 in 10.0 mi North 9.2 mph - N/A   Clear
9:15 PM 69.8 °F 32.0 °F 25% 30.00 in 10.0 mi North 8.1 mph - N/A   Clear
9:35 PM 68.0 °F 32.0 °F 26% 30.00 in 10.0 mi Calm Calm - N/A   Clear
9:55 PM 68.0 °F 32.0 °F 26% 30.00 in 10.0 mi Calm Calm - N/A   Clear
10:15 PM 68.0 °F 30.2 °F 24% 30.00 in 10.0 mi North 4.6 mph - N/A   Clear
10:35 PM 68.0 °F 28.4 °F 23% 30.00 in 10.0 mi NNE 9.2 mph - N/A   Clear
10:55 PM 66.2 °F 28.4 °F 24% 30.00 in 10.0 mi ENE 4.6 mph - N/A   Clear
11:15 PM 66.2 °F 28.4 °F 24% 30.00 in 10.0 mi Calm Calm - N/A   Clear
11:35 PM 68.0 °F 28.4 °F 23% 29.99 in 10.0 mi NE 5.8 mph - N/A   Clear
11:55 PM 68.0 °F 30.2 °F 24% 29.99 in 10.0 mi NNE 10.4 mph - N/A   Clear